NOAA 16 DEB, 41283

Orbit data source: Space-Track

NOAA 16 DEB, 41283 is space debris in SSO originally from a launch on Thu, 21 Sep 2000 UTC launched from the Air Force Western Test Range (AFWTR). Debris objects in space refer to the collection of defunct objects orbiting the Earth. Examples of debris include non-operational satellites, rocket bodies, and fragments generated from explosions, collisions, or faulty payload assembly.

Loading next visibility...
Identifier
41283, 2000-055GK
Orbit
SSO
Country
Flag of USUS
Related business
Manufacturer
Unknown
Mission
Spacecraft
Bus & Motor
Unknown
Mass
Unknown
Launch date (UTC)
2000-09-21 (26 years ago)
Launch vehicle
Unknown
Launch site
Air Force Western Test Range (AFWTR)
Object type
Payload
Rocket body
Debris
Shape & HBR
Unknown shape, 0.1 m
Radar Cross Section
Medium (>0.1 m² and <1 m²)

Expand to show TLE details & history
Last TLE update: 2 days ago

TLE from 2 days ago
0 NOAA 16 DEB
1 41283U 00055GK  26171.39853713  .00001527  00000-0  88557-3 0  9995
2 41283  98.8389 150.1187 0060390 352.9702   7.0615 14.09387645537094
Epoch: 2026-06-20T09:33Z
TLE epoch observation values (Epoch: 2026-06-20T09:33:53.608Z)
Latitude
-0.00002°
Longitude
98.03161°
Altitude
820.971 km
Speed
7.465 km/s
True Right ascension
10h 00m 28s
True Declination
0° 00' 00"
Sunlit
Object was in daylight at epoch
Visualization orbit readout
Latitude
Unknown
Longitude
Unknown
Altitude
Unknown
Speed
Unknown
Apparent Right ascension
Unknown
Apparent Declination
Unknown
Sunlit
N/A
Visualization observer readout
Local Sidereal Time
21:35:15
Azimuth
Unknown
Elevation
Unknown
Doppler factor
Unknown
Orbital elements
Apogee altitude
902.35 km
Perigee altitude
814.944 km
Semi-major axis
7,236.784 km
Eccentricity
0.00604
Inclination
98.8389°
RAAN
150.1187°
Arg. of periapsis
352.9702°
True anomaly
7.14721°
Mean anomaly
7.0615°
Eccentric anomaly
7.10429°
Mean motion
3.52553 °/min
Orbital period
102.11 mins
BSTAR
0.00088557
Loading maneuver chart data...
Computing Atmospheric mass density...
Loading historical data...
Loading historical data...
Loading historical data...
Loading historical data...
Loading historical data...
Loading historical data...
Loading historical data...

Documentation

Showing up to 5 results
|